| time (UTC) | temp F | wind direction | speed MPH | gust MPH | rain 1hr in | rain 24hr in | rain mn in | humidity % | barometer mb |
| 20260507120517 | 60 | 293 | 1.0 | 3.0 | 0.00 | 0.30 | 0.03 | 76 | 1014.0 |
| 20260507115517 | 58 | 293 | 1.0 | 5.0 | 0.00 | 0.30 | 0.03 | 75 | 1013.9 |
| 20260507114537 | 58 | 293 | 1.0 | 6.0 | 0.00 | 0.30 | 0.03 | 76 | 1014.0 |
| 20260507113517 | 59 | 293 | 1.0 | 4.0 | 0.00 | 0.30 | 0.03 | 75 | 1014.1 |
| 20260507112517 | 59 | 0.0 | 2.0 | 0.00 | 0.30 | 0.03 | 72 | 1014.2 | |
| 20260507111517 | 59 | 0.0 | 3.0 | 0.00 | 0.30 | 0.03 | 73 | 1014.2 | |
| 20260507110517 | 58 | 293 | 1.0 | 4.0 | 0.00 | 0.30 | 0.03 | 77 | 1014.4 |
| 20260507105557 | 57 | 0.0 | 4.0 | 0.00 | 0.30 | 0.03 | 77 | 1014.3 | |
| 20260507104517 | 57 | 0.0 | 2.0 | 0.00 | 0.30 | 0.03 | 78 | 1014.3 | |
| 20260507103517 | 56 | 0.0 | 0.0 | 0.00 | 0.30 | 0.03 | 80 | 1014.4 | |
| 20260507102557 | 56 | 293 | 1.0 | 5.0 | 0.00 | 0.30 | 0.03 | 78 | 1014.5 |
| 20260507101517 | 57 | 0.0 | 3.0 | 0.00 | 0.30 | 0.03 | 80 | 1014.5 | |
| 20260507100517 | 56 | 0.0 | 1.0 | 0.00 | 0.30 | 0.03 | 79 | 1014.5 | |
| 20260507095517 | 56 | 0.0 | 4.0 | 0.00 | 0.30 | 0.03 | 79 | 1014.4 | |
| 20260507094517 | 55 | 0.0 | 4.0 | 0.00 | 0.30 | 0.03 | 82 | 1014.4 | |
| 20260507093517 | 55 | 293 | 1.0 | 4.0 | 0.00 | 0.30 | 0.03 | 81 | 1014.5 |
| 20260507092517 | 55 | 0.0 | 2.0 | 0.00 | 0.30 | 0.03 | 83 | 1014.4 | |
| 20260507091517 | 54 | 0.0 | 2.0 | 0.00 | 0.30 | 0.03 | 89 | 1014.2 | |
| 20260507090517 | 53 | 0.0 | 2.0 | 0.00 | 0.30 | 0.03 | 88 | 1014.2 | |
| 20260507085517 | 52 | 0.0 | 2.0 | 0.00 | 0.30 | 0.03 | 88 | 1014.0 | |
| 20260507084517 | 52 | 0.0 | 1.0 | 0.00 | 0.30 | 0.03 | 89 | 1014.0 | |
| 20260507083517 | 52 | 0.0 | 1.0 | 0.00 | 0.30 | 0.03 | 89 | 1014.1 | |
| 20260507082517 | 52 | 0.0 | 0.0 | 0.00 | 0.30 | 0.03 | 90 | 1014.1 | |
| 20260507081538 | 52 | 0.0 | 2.0 | 0.00 | 0.30 | 0.03 | 91 | 1014.0 | |
| 20260507080517 | 51 | 0.0 | 2.0 | 0.00 | 0.30 | 0.03 | 92 | 1013.9 | |
| 20260507075537 | 51 | 0.0 | 0.0 | 0.00 | 0.30 | 0.03 | 93 | 1013.9 | |
| 20260507074517 | 50 | 0.0 | 0.0 | 0.00 | 0.30 | 0.03 | 94 | 1013.8 | |
| 20260507073537 | 50 | 0.0 | 2.0 | 0.00 | 0.30 | 0.03 | 94 | 1013.7 | |
| 20260507072517 | 50 | 0.0 | 0.0 | 0.00 | 0.30 | 0.03 | 94 | 1013.7 | |
| 20260507071517 | 49 | 0.0 | 0.0 | 0.00 | 0.30 | 0.03 | 94 | 1013.6 | |
| 20260507070517 | 49 | 0.0 | 0.0 | 0.00 | 0.30 | 0.03 | 94 | 1013.5 | |
| 20260507065517 | 49 | 0.0 | 0.0 | 0.00 | 0.30 | 0.03 | 94 | 1013.4 | |
| 20260507064517 | 49 | 0.0 | 0.0 | 0.00 | 0.30 | 0.03 | 94 | 1013.4 | |
| 20260507063517 | 49 | 0.0 | 0.0 | 0.00 | 0.30 | 0.03 | 94 | 1013.4 | |
| 20260507062517 | 48 | 0.0 | 0.0 | 0.00 | 0.30 | 0.03 | 94 | 1013.4 | |
| 20260507061517 | 48 | 0.0 | 0.0 | 0.00 | 0.30 | 0.03 | 94 | 1013.3 | |
| 20260507060517 | 48 | 0.0 | 0.0 | 0.01 | 0.30 | 0.03 | 94 | 1013.3 | |
| 20260507055517 | 48 | 0.0 | 1.0 | 0.01 | 0.30 | 0.03 | 94 | 1013.1 | |
| 20260507054557 | 47 | 0.0 | 1.0 | 0.02 | 0.30 | 0.03 | 94 | 1013.0 | |
| 20260507053517 | 47 | 0.0 | 2.0 | 0.02 | 0.30 | 0.03 | 94 | 1012.8 | |
| 20260507052516 | 47 | 0.0 | 1.0 | 0.03 | 0.30 | 0.03 | 94 | 1012.7 | |
| 20260507051517 | 47 | 0.0 | 0.0 | 0.03 | 0.30 | 0.03 | 94 | 1012.4 | |
| 20260507050517 | 47 | 0.0 | 0.0 | 0.02 | 0.29 | 0.02 | 94 | 1012.3 | |
| 20260507045537 | 47 | 0.0 | 0.0 | 0.02 | 0.29 | 0.02 | 94 | 1012.2 | |
| 20260507044537 | 47 | 0.0 | 0.0 | 0.02 | 0.28 | 0.02 | 94 | 1012.2 | |
| 20260507043517 | 47 | 0.0 | 0.0 | 0.01 | 0.28 | 0.01 | 94 | 1012.1 | |
| 20260507042537 | 47 | 0.0 | 0.0 | 0.00 | 0.27 | 0.00 | 94 | 1012.0 | |
| 20260507041517 | 47 | 0.0 | 0.0 | 0.00 | 0.27 | 0.00 | 94 | 1011.9 | |
| 20260507040557 | 47 | 0.0 | 0.0 | 0.00 | 0.27 | 0.00 | 94 | 1011.8 | |
| 20260507035517 | 46 | 0.0 | 1.0 | 0.00 | 0.27 | 0.00 | 94 | 1011.8 | |
| 20260507034516 | 46 | 0.0 | 0.0 | 0.00 | 0.27 | 0.00 | 94 | 1011.8 | |
| 20260507033536 | 46 | 0.0 | 0.0 | 0.00 | 0.27 | 0.00 | 93 | 1011.6 | |
| 20260507032516 | 45 | 0.0 | 0.0 | 0.00 | 0.27 | 0.00 | 94 | 1011.6 | |
| 20260507031536 | 45 | 0.0 | 0.0 | 0.00 | 0.27 | 0.00 | 93 | 1011.6 | |
| 20260507030516 | 45 | 0.0 | 0.0 | 0.00 | 0.27 | 0.00 | 93 | 1011.4 | |
| 20260507025516 | 44 | 0.0 | 0.0 | 0.00 | 0.27 | 0.00 | 93 | 1011.4 | |
| 20260507024517 | 44 | 0.0 | 0.0 | 0.00 | 0.27 | 0.00 | 93 | 1011.3 | |
| 20260507023517 | 44 | 0.0 | 0.0 | 0.00 | 0.27 | 0.00 | 92 | 1011.3 | |
| 20260507022516 | 44 | 0.0 | 0.0 | 0.00 | 0.27 | 0.00 | 92 | 1011.2 | |
| 20260507021517 | 44 | 0.0 | 0.0 | 0.00 | 0.27 | 0.00 | 92 | 1011.2 | |
| 20260507020557 | 44 | 0.0 | 0.0 | 0.00 | 0.27 | 0.00 | 92 | 1011.2 | |
| 20260507015516 | 44 | 0.0 | 0.0 | 0.00 | 0.27 | 0.00 | 92 | 1011.2 | |
| 20260507014516 | 44 | 0.0 | 0.0 | 0.00 | 0.27 | 0.00 | 92 | 1011.1 | |
| 20260507013516 | 44 | 0.0 | 0.0 | 0.00 | 0.27 | 0.00 | 92 | 1011.4 | |
| 20260507012517 | 44 | 0.0 | 0.0 | 0.00 | 0.27 | 0.00 | 92 | 1011.5 | |
| 20260507011517 | 44 | 0.0 | 0.0 | 0.00 | 0.27 | 0.00 | 92 | 1011.5 | |
| 20260507010537 | 45 | 0.0 | 0.0 | 0.00 | 0.27 | 0.00 | 92 | 1011.3 | |
| 20260507005516 | 45 | 0.0 | 0.0 | 0.00 | 0.27 | 0.00 | 92 | 1011.4 | |
| 20260507004516 | 45 | 0.0 | 0.0 | 0.00 | 0.27 | 0.00 | 92 | 1011.3 | |
| 20260507003516 | 45 | 0.0 | 0.0 | 0.00 | 0.27 | 0.00 | 91 | 1011.2 | |
| 20260507002516 | 45 | 0.0 | 0.0 | 0.00 | 0.27 | 0.00 | 91 | 1011.2 | |
| 20260507001516 | 45 | 0.0 | 0.0 | 0.00 | 0.27 | 0.00 | 92 | 1011.2 | |
| 20260507000516 | 45 | 0.0 | 0.0 | 0.00 | 0.27 | 0.00 | 92 | 1011.0 | |
| 20260506235517 | 45 | 0.0 | 0.0 | 0.00 | 0.27 | 0.00 | 92 | 1011.1 | |
| 20260506234516 | 45 | 0.0 | 0.0 | 0.00 | 0.27 | 0.00 | 91 | 1011.1 | |
| 20260506233516 | 45 | 0.0 | 0.0 | 0.00 | 0.27 | 0.00 | 91 | 1010.9 | |
| 20260506232557 | 45 | 0.0 | 0.0 | 0.00 | 0.27 | 0.00 | 91 | 1010.9 | |
| 20260506231516 | 45 | 0.0 | 0.0 | 0.00 | 0.27 | 0.00 | 91 | 1010.8 | |
| 20260506230516 | 46 | 0.0 | 0.0 | 0.00 | 0.27 | 0.00 | 91 | 1010.8 | |
| 20260506225516 | 46 | 0.0 | 0.0 | 0.00 | 0.27 | 0.00 | 91 | 1010.8 | |
| 20260506224516 | 46 | 0.0 | 0.0 | 0.00 | 0.27 | 0.00 | 91 | 1010.9 | |
| 20260506223516 | 46 | 0.0 | 0.0 | 0.00 | 0.27 | 0.00 | 91 | 1010.7 | |
| 20260506222516 | 46 | 0.0 | 0.0 | 0.00 | 0.27 | 0.00 | 91 | 1010.8 | |
| 20260506221516 | 46 | 0.0 | 0.0 | 0.00 | 0.27 | 0.00 | 91 | 1010.7 | |
| 20260506220516 | 47 | 0.0 | 0.0 | 0.00 | 0.27 | 0.00 | 91 | 1010.7 | |
| 20260506215517 | 47 | 0.0 | 0.0 | 0.00 | 0.27 | 0.27 | 91 | 1010.7 | |
| 20260506214517 | 47 | 0.0 | 0.0 | 0.00 | 0.27 | 0.27 | 91 | 1010.6 | |
| 20260506213537 | 47 | 0.0 | 0.0 | 0.00 | 0.27 | 0.27 | 91 | 1010.4 | |
| 20260506212517 | 47 | 0.0 | 0.0 | 0.00 | 0.27 | 0.27 | 90 | 1010.5 | |
| 20260506211517 | 47 | 0.0 | 2.0 | 0.00 | 0.27 | 0.27 | 90 | 1010.4 | |
| 20260506210517 | 47 | 0.0 | 0.0 | 0.00 | 0.27 | 0.27 | 90 | 1010.4 | |
| 20260506205517 | 47 | 0.0 | 0.0 | 0.00 | 0.27 | 0.27 | 89 | 1010.4 | |
| 20260506204517 | 47 | 0.0 | 0.0 | 0.00 | 0.27 | 0.27 | 89 | 1010.4 | |
| 20260506203517 | 47 | 0.0 | 0.0 | 0.00 | 0.27 | 0.27 | 89 | 1010.4 | |
| 20260506202517 | 48 | 0.0 | 0.0 | 0.00 | 0.27 | 0.27 | 89 | 1010.3 | |
| 20260506201517 | 48 | 0.0 | 0.0 | 0.00 | 0.27 | 0.27 | 89 | 1010.2 | |
| 20260506200517 | 48 | 0.0 | 0.0 | 0.00 | 0.27 | 0.27 | 89 | 1010.1 | |
| 20260506195517 | 48 | 0.0 | 0.0 | 0.00 | 0.27 | 0.27 | 89 | 1009.9 | |
| 20260506194517 | 48 | 0.0 | 0.0 | 0.00 | 0.27 | 0.27 | 88 | 1009.9 | |
| 20260506193517 | 48 | 0.0 | 0.0 | 0.00 | 0.27 | 0.27 | 88 | 1009.8 | |
| 20260506192517 | 49 | 0.0 | 0.0 | 0.00 | 0.27 | 0.27 | 88 | 1009.6 | |
| 20260506191517 | 49 | 0.0 | 0.0 | 0.00 | 0.27 | 0.27 | 88 | 1009.7 | |
| 20260506190517 | 49 | 0.0 | 0.0 | 0.00 | 0.27 | 0.27 | 87 | 1009.7 | |
| 20260506185517 | 49 | 0.0 | 0.0 | 0.00 | 0.27 | 0.27 | 87 | 1009.5 | |
| 20260506184537 | 50 | 0.0 | 0.0 | 0.00 | 0.28 | 0.27 | 87 | 1009.3 | |
| 20260506183537 | 50 | 0.0 | 1.0 | 0.00 | 0.28 | 0.27 | 87 | 1009.0 | |
| 20260506182517 | 51 | 0.0 | 0.0 | 0.00 | 0.28 | 0.27 | 87 | 1008.9 | |
| 20260506181517 | 51 | 0.0 | 0.0 | 0.00 | 0.28 | 0.27 | 87 | 1008.9 | |
| 20260506180517 | 51 | 0.0 | 2.0 | 0.00 | 0.28 | 0.27 | 87 | 1008.9 | |
| 20260506175517 | 51 | 0.0 | 1.0 | 0.00 | 0.28 | 0.27 | 88 | 1008.9 | |
| 20260506174700 | 52 | 0.0 | 2.0 | 0.00 | 0.28 | 0.27 | 88 | 1008.9 | |
| 20260506173517 | 52 | 0.0 | 1.0 | 0.00 | 0.28 | 0.27 | 88 | 1008.5 | |
| 20260506172517 | 52 | 0.0 | 3.0 | 0.00 | 0.28 | 0.27 | 88 | 1008.5 | |
| 20260506171517 | 52 | 0.0 | 1.0 | 0.00 | 0.28 | 0.27 | 88 | 1008.4 | |
| 20260506170517 | 52 | 0.0 | 4.0 | 0.00 | 0.28 | 0.27 | 88 | 1008.0 | |
| 20260506165537 | 52 | 0.0 | 3.0 | 0.00 | 0.28 | 0.27 | 89 | 1008.0 | |
| 20260506164516 | 52 | 0.0 | 2.0 | 0.00 | 0.28 | 0.27 | 90 | 1008.0 | |
| 20260506163517 | 52 | 0.0 | 2.0 | 0.00 | 0.28 | 0.27 | 89 | 1007.9 | |
| 20260506162517 | 52 | 0.0 | 1.0 | 0.00 | 0.28 | 0.27 | 89 | 1007.9 | |
| 20260506161537 | 52 | 0.0 | 2.0 | 0.00 | 0.28 | 0.27 | 89 | 1007.9 | |
| 20260506160517 | 52 | 0.0 | 3.0 | 0.00 | 0.28 | 0.27 | 90 | 1007.8 | |
| 20260506155517 | 52 | 293 | 1.0 | 7.0 | 0.00 | 0.28 | 0.27 | 90 | 1007.5 |
| 20260506154559 | 52 | 293 | 1.0 | 4.0 | 0.00 | 0.28 | 0.27 | 91 | 1007.5 |
| 20260506153537 | 52 | 0.0 | 4.0 | 0.00 | 0.28 | 0.27 | 92 | 1007.8 | |
| 20260506152517 | 51 | 293 | 1.0 | 5.0 | 0.01 | 0.28 | 0.27 | 92 | 1007.9 |
| 20260506151517 | 51 | 0.0 | 0.0 | 0.02 | 0.28 | 0.27 | 92 | 1007.8 | |
| 20260506150537 | 51 | 0.0 | 3.0 | 0.06 | 0.28 | 0.27 | 92 | 1007.9 | |
| 20260506145516 | 51 | 293 | 1.0 | 4.0 | 0.11 | 0.28 | 0.27 | 91 | 1007.8 |
| 20260506144516 | 51 | 0.0 | 1.0 | 0.14 | 0.28 | 0.27 | 92 | 1007.7 | |
| 20260506143516 | 51 | 293 | 1.0 | 5.0 | 0.19 | 0.28 | 0.27 | 92 | 1007.5 |
| 20260506142516 | 50 | 293 | 1.0 | 5.0 | 0.23 | 0.27 | 0.26 | 90 | 1007.4 |
| 20260506141537 | 51 | 0.0 | 3.0 | 0.25 | 0.26 | 0.25 | 89 | 1007.2 | |
| 20260506140517 | 51 | 270 | 1.0 | 9.0 | 0.21 | 0.22 | 0.21 | 88 | 1007.3 |
| 20260506135517 | 52 | 293 | 1.0 | 4.0 | 0.16 | 0.17 | 0.16 | 86 | 1007.1 |
| 20260506134516 | 53 | 293 | 1.0 | 10.0 | 0.13 | 0.13 | 0.13 | 84 | 1006.7 |
| 20260506133516 | 54 | 293 | 2.0 | 9.0 | 0.08 | 0.09 | 0.08 | 81 | 1006.7 |
| 20260506132517 | 57 | 0.0 | 1.0 | 0.03 | 0.04 | 0.03 | 78 | 1006.8 | |
| 20260506131537 | 60 | 0.0 | 1.0 | 0.00 | 0.01 | 0.00 | 75 | 1006.5 | |
| 20260506130516 | 60 | 0.0 | 0.0 | 0.00 | 0.01 | 0.00 | 74 | 1006.1 | |
| 20260506125537 | 60 | 0.0 | 0.0 | 0.00 | 0.01 | 0.00 | 73 | 1005.9 | |
| 20260506124516 | 60 | 0.0 | 0.0 | 0.00 | 0.01 | 0.00 | 72 | 1005.7 | |
| 20260506123517 | 59 | 0.0 | 0.0 | 0.00 | 0.01 | 0.00 | 72 | 1005.7 | |
| 20260506122517 | 59 | 0.0 | 0.0 | 0.00 | 0.01 | 0.00 | 71 | 1005.6 | |
| 20260506121517 | 59 | 0.0 | 0.0 | 0.00 | 0.01 | 0.00 | 75 | 1005.6 |